Vorticity
5 8 7 3 6 8 16 8 -5 -23 -22 21 14 18 10 9 10 19 19 18 16 24 42 45 23 11 -0 19 15 22 22 8 6 11 9 9 12 -3 18 23 -11 7 6 4
12 26 28 20 27 23 4 1 6 10 -10 34 16 6 14 10 21 22 15 19 17 25 11 10 2 -6 15 10 16 24 12 10 6 9 13 6 10 12 -4 20 8 6 3 3
15 5 5 34 45 35 20 16 17 8 26 -1 3 12 5 13 18 18 16 14 15 13 24 12 17 17 22 15 22 15 9 9 9 13 3 22 -0 15 -3 11 4 3 3 4
1 21 16 -5 2 19 32 22 24 25 9 6 9 16 7 13 20 23 18 14 10 17 15 15 22 21 19 17 12 10 9 12 4 18 8 13 -3 12 7 4 4 4 -0 5
1 3 -9 56 13 2 19 13 11 3 5 8 15 11 8 9 21 29 18 20 21 18 16 21 19 18 17 14 9 20 0 9 11 17 5 3 5 5 5 4 -1 5 13 9
6 13 8 2 7 6 22 22 -25 8 -3 16 7 10 11 10 9 22 17 18 27 26 23 19 15 12 5 2 16 4 1 13 14 5 3 5 7 5 -2 5 10 12 10 8
-0 1 19 24 12 15 14 -14 10 34 -9 18 14 4 5 2 5 25 21 10 11 9 13 6 13 8 22 20 11 15 14 1 3 8 8 4 -0 6 9 14 8 9 8 7
28 2 21 21 10 10 -11 5 0 4 -1 5 -8 8 18 23 5 5 9 28 47 26 21 29 29 14 10 3 4 6 13 11 5 1 5 6 8 14 8 9 8 7 8 8
-20 21 -1 2 4 -5 -1 3 5 8 9 16 17 -14 14 25 29 -5 -4 7 7 6 7 6 7 6 11 7 2 1 3 7 7 8 10 7 10 9 8 8 8 8 8 9
10 34 22 25 17 5 14 14 25 10 9 18 25 13 3 18 7 6 11 12 9 7 10 12 8 5 5 8 6 6 8 10 5 5 11 9 7 8 8 8 7 8 9 8
8 21 28 25 17 5 15 20 12 12 10 23 22 26 -3 10 21 9 8 3 5 9 9 7 8 7 4 5 7 5 4 8 12 9 8 8 8 8 7 7 9 8 7 6
-3 15 7 3 1 -0 15 9 16 6 12 17 28 24 5 3 19 -4 16 9 11 11 6 3 4 7 6 10 7 9 11 9 9 8 8 8 7 7 8 9 8 7 6 7
6 -5 -2 -1 3 1 7 16 7 2 4 14 22 21 5 -4 11 18 4 10 8 9 10 10 18 7 13 3 8 9 8 8 8 8 8 7 7 9 9 8 7 6 7 7
21 22 20 15 8 1 6 10 15 2 11 7 21 9 18 14 15 25 -0 12 13 8 16 17 -9 5 7 10 9 8 8 8 8 7 7 8 9 8 8 7 7 7 7 6
-0 7 12 15 17 6 -10 9 11 7 6 -13 11 36 18 19 19 12 17 12 11 10 4 18 2 -2 9 10 8 8 8 8 7 7 9 9 8 8 7 7 7 6 7 8
14 14 12 8 12 8 11 3 12 1 28 16 17 11 7 24 17 26 16 11 14 8 7 9 4 5 9 8 8 8 7 7 8 9 9 8 7 7 7 7 6 6 7 9
12 15 16 18 17 16 15 25 5 31 12 12 15 1 8 30 8 14 13 8 7 5 4 8 11 9 9 9 8 7 7 9 9 8 8 7 7 7 7 6 6 7 10 12
9 14 19 17 22 17 14 4 20 27 19 17 0 13 10 18 10 9 8 10 12 12 13 9 9 9 8 8 6 8 9 9 8 7 7 7 7 6 6 6 8 11 12 13
8 10 14 16 31 24 39 34 12 22 20 0 8 7 13 8 9 9 10 10 9 9 8 10 9 8 7 7 9 10 8 8 7 6 7 6 6 6 7 9 11 12 13 12
16 20 2 11 2 2 3 4 11 7 7 8 3 13 5 9 12 12 11 10 9 10 10 9 8 6 7 9 10 8 8 7 6 6 6 6 6 7 9 11 12 12 13 16
11 -8 1 8 17 9 8 12 9 5 9 8 2 8 2 9 12 10 9 10 9 8 9 8 6 7 10 10 8 8 6 6 5 6 6 6 8 10 10 11 12 14 16 18
10 13 16 8 -2 15 11 18 16 8 8 9 11 11 4 8 9 12 10 8 9 9 8 6 8 10 9 8 8 7 6 5 6 6 6 7 9 10 11 13 14 16 17 15
10 4 3 8 8 6 7 -0 8 11 5 6 1 10 7 5 9 7 7 8 8 8 6 7 10 8 8 8 7 6 5 6 6 6 7 9 9 10 12 15 16 19 18 16
24 20 12 7 9 12 12 14 12 13 7 8 7 2 7 0 27 11 6 10 11 7 7 9 8 8 9 8 6 5 6 6 6 7 8 9 10 13 14 17 20 18 17 20
15 18 19 20 15 12 13 14 14 12 8 7 11 10 5 19 12 5 5 7 8 6 9 8 8 8 8 7 6 6 6 6 6 8 8 11 13 13 18 20 17 19 22 24
9 12 14 17 18 16 14 13 13 12 11 7 12 9 16 25 16 7 8 12 6 8 8 7 8 8 8 6 6 6 6 6 7 8 11 12 13 19 21 18 20 23 27 24
14 11 14 15 14 14 15 14 10 10 9 10 14 11 25 16 12 3 10 7 8 8 5 7 9 9 7 6 6 6 6 6 8 12 12 12 19 21 19 19 24 28 27 24
Height
3010 3011 3011 3011 3011 3011 3010 3007 3009 2988 2998 2988 2991 2985 2980 2974 2966 2960 2955 2952 2949 2945 2939 2939 2944 2950 2958 2965 2973 2983 2990 3000 3008 3015 3021 3025 3029 3033 3036 3039 3041 3043 3045 3045
3005 3005 3004 3003 3002 3002 3001 3001 2997 2996 2988 2990 2987 2982 2976 2971 2963 2958 2954 2952 2948 2947 2945 2943 2948 2954 2960 2966 2973 2981 2989 2998 3006 3011 3017 3022 3026 3030 3033 3035 3037 3039 3040 3040
3003 3003 3003 3000 2993 2993 2992 2992 2992 2990 2987 2985 2982 2980 2975 2968 2961 2956 2954 2952 2950 2948 2949 2950 2953 2956 2962 2966 2974 2982 2990 2998 3004 3009 3015 3019 3024 3027 3027 3032 3034 3035 3035 3034
3003 3001 3001 2994 2991 2990 2986 2985 2985 2985 2984 2983 2980 2977 2972 2967 2960 2956 2954 2953 2951 2951 2953 2954 2956 2958 2963 2970 2977 2984 2990 2997 3003 3008 3013 3016 3018 3023 3027 3029 3030 3030 3029 3027
3002 3000 2994 2990 2990 2988 2986 2984 2983 2983 2983 2982 2980 2976 2973 2968 2962 2957 2954 2953 2953 2952 2953 2955 2957 2961 2967 2973 2979 2983 2990 2996 3002 3006 3010 3015 3019 3023 3025 3025 3025 3023 3022 3020
3001 3000 2994 2990 2988 2987 2985 2983 2982 2982 2982 2981 2978 2976 2973 2969 2965 2960 2956 2956 2956 2957 2957 2959 2962 2965 2970 2976 2980 2984 2992 2996 2999 3004 3010 3014 3018 3020 3020 3019 3019 3018 3016 3014
3000 2999 2991 2988 2988 2987 2986 2990 2982 2980 2980 2979 2977 2976 2973 2971 2968 2964 2961 2961 2961 2962 2962 2965 2966 2969 2972 2976 2981 2986 2992 2997 3000 3006 3010 3013 3014 3015 3015 3015 3014 3013 3010 3007
2996 2998 2992 2986 2987 2987 2987 2985 2983 2981 2980 2978 2977 2975 2972 2971 2970 2968 2966 2963 2959 2965 2964 2965 2970 2971 2975 2979 2985 2987 2992 2997 3003 3007 3009 3010 3011 3012 3012 3011 3010 3007 3004 3001
2988 2985 2985 2985 2986 2985 2984 2983 2981 2980 2978 2977 2976 2975 2971 2972 2971 2971 2970 2970 2970 2972 2973 2976 2978 2982 2986 2989 2991 2995 2999 3003 3005 3006 3007 3009 3009 3009 3008 3006 3004 3001 2998 2995
2985 2982 2982 2983 2983 2982 2981 2979 2978 2977 2975 2973 2973 2974 2974 2972 2974 2974 2974 2974 2975 2977 2979 2981 2983 2986 2990 2993 2996 2998 3000 3002 3004 3005 3006 3006 3006 3005 3003 3001 2998 2995 2992 2988
2980 2981 2981 2980 2981 2980 2978 2977 2976 2975 2974 2971 2971 2971 2975 2975 2975 2977 2978 2978 2980 2981 2983 2985 2987 2990 2993 2995 2997 2999 3001 3002 3003 3003 3003 3003 3002 3001 2999 2996 2993 2989 2985 2981
2979 2979 2979 2979 2979 2978 2977 2976 2975 2974 2973 2971 2969 2970 2974 2974 2977 2979 2979 2981 2984 2984 2985 2987 2990 2992 2995 2997 2999 2999 3000 3000 3001 3001 3001 3000 2998 2996 2994 2991 2987 2983 2979 2975
2975 2974 2976 2976 2976 2976 2976 2975 2974 2974 2973 2971 2970 2971 2973 2974 2976 2978 2979 2982 2984 2986 2988 2991 2993 2995 2997 2998 2998 2998 2999 2999 2999 2998 2997 2996 2994 2992 2989 2985 2982 2978 2974 2969
2970 2970 2971 2972 2973 2974 2974 2973 2973 2972 2972 2971 2970 2970 2971 2973 2975 2978 2979 2982 2984 2987 2990 2992 2993 2995 2996 2997 2997 2997 2998 2997 2997 2995 2994 2992 2990 2987 2984 2981 2977 2972 2966 2960
2967 2967 2967 2968 2969 2970 2971 2971 2970 2970 2970 2969 2969 2969 2970 2972 2974 2977 2979 2981 2984 2987 2990 2991 2993 2994 2995 2996 2996 2996 2995 2995 2994 2992 2990 2988 2985 2982 2979 2975 2971 2965 2959 2953
2962 2963 2964 2964 2965 2966 2967 2967 2967 2967 2966 2967 2968 2970 2971 2972 2974 2975 2977 2981 2984 2987 2989 2991 2992 2993 2994 2994 2994 2994 2993 2992 2991 2989 2987 2984 2981 2978 2974 2969 2964 2958 2951 2944
2959 2959 2959 2959 2960 2961 2962 2964 2964 2964 2965 2966 2968 2970 2972 2973 2974 2976 2979 2982 2984 2986 2988 2990 2991 2992 2993 2993 2992 2991 2990 2989 2987 2985 2983 2980 2976 2972 2968 2962 2956 2950 2944 2937
2956 2957 2956 2956 2956 2957 2958 2960 2960 2961 2964 2965 2968 2970 2972 2973 2976 2978 2980 2982 2984 2986 2988 2989 2990 2991 2991 2990 2990 2989 2987 2986 2984 2981 2979 2975 2971 2967 2961 2955 2950 2943 2937 2931
2954 2954 2954 2955 2955 2955 2955 2957 2960 2961 2963 2966 2968 2970 2973 2975 2977 2978 2980 2982 2984 2985 2987 2988 2988 2988 2988 2988 2987 2986 2984 2982 2980 2977 2974 2970 2966 2961 2955 2949 2942 2936 2929 2922
2952 2953 2953 2955 2956 2957 2957 2959 2961 2963 2964 2966 2968 2971 2973 2975 2977 2978 2980 2982 2983 2985 2985 2986 2986 2986 2986 2985 2984 2982 2981 2979 2976 2973 2970 2965 2960 2954 2948 2941 2934 2928 2921 2914
2952 2954 2954 2955 2956 2957 2958 2960 2961 2963 2965 2967 2970 2972 2973 2975 2976 2978 2980 2981 2982 2983 2983 2984 2984 2984 2983 2982 2981 2979 2977 2975 2972 2968 2964 2959 2953 2947 2940 2934 2927 2920 2913 2907
2950 2951 2953 2954 2956 2957 2958 2959 2961 2963 2965 2966 2968 2970 2972 2973 2975 2977 2978 2979 2980 2981 2982 2982 2982 2981 2980 2979 2978 2976 2974 2971 2967 2963 2958 2952 2946 2940 2933 2926 2919 2913 2906 2901
2947 2949 2950 2952 2953 2955 2957 2958 2959 2961 2963 2965 2966 2968 2970 2971 2973 2975 2976 2977 2978 2979 2979 2979 2979 2978 2977 2976 2974 2972 2969 2966 2962 2957 2951 2945 2939 2932 2925 2918 2912 2906 2900 2895
2944 2945 2946 2948 2949 2951 2953 2955 2957 2958 2960 2962 2963 2965 2967 2969 2970 2971 2973 2974 2976 2976 2976 2976 2976 2975 2974 2972 2970 2968 2965 2961 2956 2950 2944 2938 2931 2925 2918 2911 2905 2900 2895 2890
2943 2943 2943 2944 2945 2947 2949 2951 2952 2954 2956 2958 2959 2961 2963 2964 2966 2968 2970 2972 2973 2973 2974 2973 2973 2971 2969 2968 2966 2963 2959 2955 2950 2944 2937 2931 2925 2917 2910 2904 2898 2893 2889 2886
2940 2940 2940 2940 2941 2942 2944 2946 2948 2950 2952 2954 2955 2957 2959 2960 2962 2966 2968 2969 2970 2970 2970 2970 2969 2967 2966 2964 2961 2958 2954 2949 2944 2937 2931 2924 2917 2911 2904 2898 2893 2887 2884 2882
2936 2936 2936 2937 2937 2938 2940 2942 2944 2946 2948 2950 2951 2953 2955 2957 2960 2962 2964 2965 2966 2967 2967 2966 2965 2963 2961 2959 2956 2953 2949 2944 2938 2931 2925 2918 2912 2905 2899 2893 2888 2884 2882 2881